This is the latest recevied weather packets stored in our database for station/object EA1AHA-13. If no packets are shown the sender has not sent any weather packets the latest 10 day(s).
| Time | Temp. | Humidity | Pressure | Rain* | Wind** | Luminosity | Snow |
|---|---|---|---|---|---|---|---|
| 1777977102 | 14.44° C | 70% | 1013.4 hPa | 0 mm | - | - | - |
| 1777976478 | 15° C | 70% | 1013.2 hPa | 0 mm | - | - | - |
| 1777975901 | 13.89° C | 71% | 1013 hPa | 0 mm | - | - | - |
| 1777975278 | 13.89° C | 74% | 1013.1 hPa | 0 mm | - | - | - |
| 1777974701 | 13.33° C | 74% | 1013.1 hPa | 0 mm | - | - | - |
| 1777974077 | 13.33° C | 76% | 1012.9 hPa | 0 mm | - | - | - |
| 1777973501 | 12.78° C | 79% | 1013.1 hPa | 0 mm | - | - | - |
| 1777972877 | 12.78° C | 79% | 1013 hPa | 0 mm | - | - | - |
| 1777972301 | 13.33° C | 76% | 1013 hPa | 0 mm | - | - | - |
| 1777971677 | 12.78° C | 77% | 1013 hPa | 0 mm | - | - | - |
| 1777971101 | 12.78° C | 77% | 1013 hPa | 0 mm | - | - | - |
| 1777970478 | 12.78° C | 77% | 1013.2 hPa | 0 mm | - | - | - |
| 1777969901 | 12.22° C | 79% | 1013 hPa | 0 mm | - | - | - |
| 1777969277 | 12.22° C | 77% | 1013 hPa | 0 mm | - | - | - |
| 1777968701 | 12.78° C | 76% | 1013.4 hPa | 0 mm | - | - | - |
| 1777968078 | 12.78° C | 73% | 1013 hPa | 0 mm | - | - | - |
| 1777967501 | 12.78° C | 74% | 1012.9 hPa | 0 mm | - | - | - |
| 1777966877 | 12.22° C | 75% | 1012.8 hPa | 0 mm | - | - | - |
| 1777966301 | 12.22° C | 75% | 1012.9 hPa | 0 mm | - | - | - |
| 1777965678 | 11.67° C | 76% | 1012.7 hPa | 0 mm | - | - | - |
| 1777965100 | 11.67° C | 77% | 1012.8 hPa | 0 mm | - | - | - |
| 1777964478 | 11.67° C | 77% | 1012.6 hPa | 0 mm | - | - | - |
| 1777963900 | 11.67° C | 77% | 1012.7 hPa | 0 mm | - | - | - |
| 1777963277 | 11.67° C | 77% | 1012.7 hPa | 0 mm | - | - | - |
| 1777962701 | 11.67° C | 78% | 1012.6 hPa | 0 mm | - | - | - |
* Rain latest hour (hover to see other rain measurements)
** Current wind speed in m/s (hover to see current wind gust speed)